Regional Weather Roundup
Issued by NWS Mt. Holly, NJ

Home | Current Version | Previous Version | Text Only | Print | Product List | Glossary On
Versions: 1 2 3 4 5 6 7 8 9 10 11 12 13 14 15 16 17 18 19 20 21 22 23 24 25 26 27
000
ASUS41 KPHI 050412
RWRPHI

REGIONAL WEATHER ROUNDUP
NATIONAL WEATHER SERVICE MOUNT HOLLY NJ
1200 AM EDT THU MAY 05 2016

NOTE:  "FAIR" INDICATES FEW OR NO CLOUDS BELOW 12,000 FEET WITH NO
SIGNIFICANT WEATHER AND/OR OBSTRUCTIONS TO VISIBILITY.

 * = STATION DOES NOT REPORT PRECIPITATION (E.G. RAIN, SNOW, ETC.)
        OR FOG.

NJZ015>026-050500-
SOUTHERN NEW JERSEY

CITY           SKY/WX    TMP DP  RH WIND       PRES   REMARKS
POMONA         CLOUDY    49  46  90 NE9       29.72R
WILDWOOD*      CLOUDY   N/A N/A N/A NE12      29.71S
MILLVILLE      CLOUDY    49  45  86 NE10      29.71S
WRIGHTSTOWN    CLOUDY    49  46  90 NE7       29.70S
MOUNT HOLLY    CLOUDY    50  46  86 NE6       29.72S
TRENTON        CLOUDY    49  46  90 NE6       29.73R FOG

$$
NJZ001>014-050500-
NORTHERN NEW JERSEY

CITY           SKY/WX    TMP DP  RH WIND       PRES   REMARKS
SUSSEX         MOCLDY    47  42  83 NE8       29.75F
ANDOVER*         N/A     47  45  93 VRB5      29.74F
MORRISTOWN     CLOUDY    48  45  87 NE7       29.74S
NEWARK         CLOUDY    50  43  77 NE14      29.74S
TETERBORO      CLOUDY    49  42  77 NE6       29.74S
CALDWELL       CLOUDY    49  30  48 NE5       29.75S
SOMERVILLE     CLOUDY    50  44  80 CALM      29.72F
ALLAIRE*       CLOUDY    48  44  86 NE12      29.74R
TOMS RIVER*    CLOUDY    48  43  81 NE13      29.73S

$$
PAZ043-044-047-054-055-060>062-066>071-050500-
EASTERN PENNSYLVANIA

CITY           SKY/WX    TMP DP  RH WIND       PRES   REMARKS
PHILADELPHIA   CLOUDY    51  46  83 E9        29.73S
NORTH PHILA    CLOUDY    51  48  89 NE9       29.74S
BLUE BELL*     CLOUDY    46  46 100 NE6       29.72S
DOYLESTOWN     CLOUDY    47  46  97 NE5       29.72S
QUAKERTOWN*    CLOUDY    48  48 100 E3        29.74S
PERKASIE*      CLOUDY    48  48 100 NE8       29.74R FOG
POTTSTOWN      CLOUDY    48  47  96 NE3       29.74S
LANCASTER      CLOUDY    49  46  90 E5        29.73R
COATESVILLE    CLOUDY    48  48 100 MISG      29.74R
READING        CLOUDY    50  46  86 N3        29.72S
ALLENTOWN      CLOUDY    50  46  86 NE9       29.73S
MOUNT POCONO   FOG       40  40 100 E8        29.71F VSB 3/4 WCI  34
HAZLETON       CLOUDY    45  45 100 CALM      29.74S
LEHIGHTON      CLOUDY    48  45  87 CALM      29.74F
WILKES BARRE   CLOUDY    49  44  83 NE3       29.73S

$$
DEZALL-MDZ008-012-015-019-020-050500-
DELAWARE AND EASTERN MARYLAND

CITY           SKY/WX    TMP DP  RH WIND       PRES   REMARKS
WILMINGTON     CLOUDY    50  46  86 E8        29.73S
DOVER          CLOUDY    50  50 100 NE8       29.71S
GEORGETOWN     CLOUDY    50  47  89 NE12      29.70F
EASTON         CLOUDY   N/A N/A N/A E8        29.74S
PATUXENT       CLOUDY    53  49  86 NE9       29.69S
OCEAN CITY     CLOUDY    50  47  89 NE15G23   29.69F
WALLOPS ISLAND CLOUDY    52  49  89 NE14      29.68S
CAMBRIDGE      CLOUDY    50  46  87 NE6       29.69S
SALISBURY      CLOUDY    50  48  93 NE13      29.68F

$$
PAZ001-021-NYZ056-072-MDZ011-DCZ001-050500-
OTHER NEARBY LOCATIONS

CITY           SKY/WX    TMP DP  RH WIND       PRES   REMARKS
HARRISBURG     CLOUDY    51  47  86 E6        29.72S
STATE COLLEGE  CLOUDY    51  48  90 E3        29.70S
WILLIAMSPORT   CLOUDY    52  48  86 E8        29.71S
BINGHAMTON     CLOUDY    45  44  97 SE7       29.73F FOG
NEW YORK CITY  CLOUDY    49  41  74 NE10G21   29.76F
BALTIMORE      DRIZZLE   51  47  86 E14       29.72R FOG
WASHINGTON DC  CLOUDY    54  50  86 NE13      29.71S

$$




USA.gov is the U.S. government's official web portal to all federal, state and local government web resources and services.